Flag for United Kingdom Weather past 2 weeks in Haywards Heath, England, United Kingdom

52 °F


Feels Like: 51 °F
Forecast: 48 / 60 °F
Wind: 5 mph from East

Location: London / Gatwick Airport

Current Time: Oct 9, 2015 at 7:15:24 PM

Latest Report: Oct 9, 2015 at 6:50 PM

Visibility: 10 mi

Pressure: 30.18 "Hg

Humidity: 77%

Dew point: 45 °F

Location of Haywards HeathLocation

Historic Weather in Haywards Heath — Graph


Haywards Heath temperature yesterday

Maximum temperature yesterday: 61 °F (at 2:20 PM)
Minimum temperature yesterday: 37 °F (at 7:50 AM)
Average temperature yesterday: 50 °F

Past Weeks' High & Low Weather Summary

High64 °F (Sep 27, 1:50 PM)100% (Sep 24, 11:20 PM)30.63 "Hg (Sep 24, 11:20 PM)
Low36 °F (Sep 26, 5:50 AM)46% (Sep 30, 1:50 PM)29.39 "Hg (Oct 6, 2:50 PM)
Average53 °F84%30.17 "Hg
* Reported Sep 24 6:20 PM — Oct 9 6:20 PM, Haywards Heath, Weather by CustomWeather, © 2015

Note: Actual official high and low records may vary slightly from our data, if they occured in-between our weather recording intervals... More about our weather records


Haywards Heath weather history for previous 24 hours

Time TempWeatherWind HumidityBarometerVisibility
6:20 PM
Fri, Oct 9
54 °FSunny.7 mph72%30.15 "Hg10 mi
5:50 PM57 °FSunny.8 mph67%30.15 "Hg10 mi
5:20 PM57 °FPassing clouds.8 mph67%30.15 "HgN/A
4:50 PM59 °FPassing clouds.9 mph63%30.15 "HgN/A
4:20 PM61 °FPassing clouds.7 mph55%30.18 "HgN/A
3:20 PM59 °FPassing clouds.7 mph68%30.18 "HgN/A
2:50 PM59 °FPassing clouds.9 mph68%30.18 "HgN/A
2:20 PM61 °FPassing clouds.6 mph59%30.18 "HgN/A
1:50 PM61 °FPassing clouds.8 mph59%30.18 "HgN/A
1:20 PM61 °FPassing clouds.7 mph59%30.18 "HgN/A
12:50 PM61 °FScattered clouds.7 mph63%30.21 "HgN/A
12:20 PM61 °FScattered clouds.6 mph63%30.21 "HgN/A
11:50 AM59 °FPassing clouds.5 mph68%30.21 "HgN/A
11:20 AM59 °FPassing clouds.6 mph72%30.21 "HgN/A
10:50 AM57 °FPassing clouds.3 mph72%30.21 "HgN/A
10:20 AM54 °FSunny.2 mph82%30.21 "Hg10 mi
9:50 AM50 °FSunny.2 mph94%30.21 "Hg10 mi
9:20 AM46 °FSunny.2 mph100%30.21 "Hg10 mi
8:50 AM43 °FFog.No wind93%30.21 "Hg6 mi
8:20 AM39 °FFog.No wind100%30.21 "Hg5 mi
7:50 AM36 °FChilly.No wind100%30.21 "Hg6 mi
7:20 AM36 °FChilly.No wind100%30.21 "Hg4 mi
6:50 AM36 °FChilly.2 mph100%30.21 "Hg4 mi
6:20 AM37 °FChilly.No wind93%30.18 "HgN/A
5:50 AM37 °FLight fog.No wind100%30.18 "HgN/A
5:20 AM37 °FLight fog.No wind100%30.18 "HgN/A
4:50 AM37 °FLight fog.No wind100%30.21 "HgN/A
4:20 AM39 °FLight fog.No wind100%30.21 "HgN/A
3:50 AM39 °FChilly.No wind100%30.21 "HgN/A
3:20 AM39 °FLight fog.2 mph100%30.21 "HgN/A
2:50 AM39 °FFog.No wind100%30.21 "HgN/A
2:20 AM41 °FLight fog.No wind93%30.21 "HgN/A
1:50 AM41 °FLight fog.No wind100%30.21 "HgN/A
1:20 AM41 °FLight fog.No wind100%30.21 "Hg2 mi
12:50 AM43 °FLight fog.No wind93%30.21 "HgN/A
12:20 AM43 °FLight fog.No wind93%30.21 "HgN/A
11:50 PM
Thu, Oct 8
43 °FLight fog.No wind100%30.21 "HgN/A
11:20 PM45 °FLight fog.No wind100%30.21 "HgN/A
10:50 PM45 °FLight fog.No wind100%30.21 "HgN/A
10:20 PM46 °FClear.No wind100%30.21 "Hg10 mi
9:50 PM46 °FClear.No wind93%30.21 "Hg10 mi
9:20 PM48 °FClear.No wind100%30.21 "Hg10 mi
8:50 PM50 °FClear.2 mph94%30.21 "Hg10 mi
8:20 PM50 °FClear.2 mph94%30.21 "Hg10 mi
7:50 PM52 °FClear.2 mph94%30.21 "Hg10 mi
7:20 PM52 °FSunny.2 mph94%30.21 "Hg10 mi
Weather by CustomWeather, © 2015

See weather overviewHow to use our weather pages